Regional Weather Roundup
Issued by NWS

Home | Current Version | Previous Version | Text Only | Print | Product List | Glossary Off
Versions: 1 2 3 4 5 6 7 8 9 10 11 12 13 14 15 16 17 18 19 20 21 22 23 24 25 26 27 28 29 30 31 32 33 34 35 36 37 38 39 40 41 42 43 44 45 46 47 48 49 50

000
ASUS45 KSLC 232210
RWRUT

UTAH REGIONAL WEATHER ROUNDUP
NATIONAL WEATHER SERVICE SALT LAKE CITY UT
300 PM MST TUE JAN 23 2018

UTZ001>011-023>025-232300-

NORTHERN UTAH

CITY           SKY/WX    TMP DP  RH WIND       PRES   REMARKS
BRIGHAM CITY   CLOUDY    37  22  55 CALM      30.34F
DUGWAY         MOSUNNY   38  24  56 S5        30.32S WCI  35
HILL AFB       PTSUNNY   35  23  61 S5        30.31F WCI  31
LOGAN          CLOUDY    30  23  75 CALM      30.33F
OGDEN          CLOUDY    38  22  52 S7        30.32S WCI  33
SALT LAKE CITY MOSUNNY   43  24  47 CALM      30.33S
TOOELE VALLEY  SUNNY     34  28  80 CALM      30.34F
WENDOVER       SUNNY     34  24  67 SE5       30.33F WCI  30
HEBER CITY       N/A     32  21  64 CALM      30.29S
WEST JORDAN    SUNNY     35  23  63 SE9       30.33S WCI  27

$$

UTZ011>015-024>027-232300-

CENTRAL/NORTHEAST UTAH

CITY           SKY/WX    TMP DP  RH WIND       PRES   REMARKS
PROVO AIRPORT  SUNNY     32  22  66 SW5       30.35F WCI  27
MOAB/CANYONLAN SUNNY     40  21  46 VRB5      30.32F
DELTA          SUNNY     28  21  74 CALM      30.34S
PRICE          SUNNY     33  16  49 CALM      30.30F
ROOSEVELT      SUNNY     32  14  47 E3        30.36F
VERNAL         SUNNY     29  13  51 CALM      30.34F

$$

UTZ013>016-019>022-027-232300-

SOUTHERN UTAH

CITY           SKY/WX    TMP DP  RH WIND       PRES   REMARKS
BRYCE CANYON   SUNNY     36  13  38 S5        30.27F WCI  32
CEDAR CITY     SUNNY     37  20  50 CALM      30.28F
MILFORD        SUNNY     27  18  69 NE5       30.30F WCI  22
ST GEORGE      CLEAR     48  23  37 CALM      30.28F
HANKSVILLE     SUNNY     41  16  36 CALM      30.35S
BLANDING         N/A     39  17  40 SW3       30.35S

$$

REGIONAL REPORTS     COLORADO/ARIZONA

CITY           SKY/WX    TMP DP  RH WIND       PRES   REMARKS
CRAIG, CO      SUNNY     25  14  63 CALM      30.31S
GRAND JUNCTION SUNNY     32  24  72 N5        30.33F WCI  27
RIFLE, CO      SUNNY     37  17  44 W6        30.31S WCI  32
MONTROSE, CO   SUNNY     38  10  31 N6        30.32S WCI  33
CORTEZ, CO     SUNNY     38  21  50 S7        30.26S WCI  33
COLORADO CITY    N/A     52  16  24 NE6       30.29R
PAGE, AZ       SUNNY     45  15  30 NE7       30.30F
GRAND CANYON   SUNNY     41  14  33 NE12      30.27F
KINGMAN, AZ    SUNNY    N/A N/A N/A N10       30.21F
FLAGSTAFF, AZ  SUNNY     36  12  37 NE14G24   30.25S WCI  27

$$

REGIONAL REPORTS    NEVADA/IDAHO/WYOMING

CITY           SKY/WX    TMP DP  RH WIND       PRES   REMARKS
LAS VEGAS, NV  SUNNY     59  24  26 NE9       30.24F
ELY, NY        SUNNY     34  26  72 S6        30.26F WCI  29
ELKO, NV       MOSUNNY   43  16  33 CALM      30.24F
POCATELLO, ID  MOSUNNY   39  24  55 S13       30.27F WCI  31
BURLEY, ID     SUNNY     42  26  53 E5        30.24F
FORT BRIDGER,    N/A     28  19  69 W22G28    30.29R WCI  15
EVANSTON, WY   PTSUNNY   28  19  69 SW10      30.26F WCI  19
ROCK SPRINGS,  SUNNY     26  17  68 SW10      30.25S WCI  16

$$



USA.gov is the U.S. government's official web portal to all federal, state and local government web resources and services.